Powrót do katalogu

STARLINK-5153

AktywnyŁącznośćVLEO
NORAD 54088·PAYLOAD·🇺🇸 United States

Wystrzelony Oct 20, 2022 z Cape Canaveral Space Force Station

Loading…

Następne Przeloty (najbliższe 24 godziny)

TLE

ŚwieżeSource: CelesTrak SupGP

Epoka: Sep 14, 2026, 14:07 UTC

1 54088C 22136AP  26257.58868056  .00613150  00000+0  23012-1 0  2578
2 54088  53.1609 204.7840 0001215  88.2250 196.6802 15.26372050    14

Śledź STARLINK-5153 w czasie rzeczywistym z AllMySat

Download on the App Store